Flag for U.S.A. Weather past 2 weeks in Corpus Christi, Texas, U.S.A.

Now
76 °F

Broken clouds.


Feels Like: 78 °F
Forecast: 56 / 73 °F
Wind: 15 mph from Southeast

Location: Corpus Christi International Airport

Current Time: Jan 29, 2015 at 1:19:48 PM

Latest Report: Jan 29, 2015 at 12:51 PM


Visibility: 10 mi

Pressure: 30.18 "Hg

Humidity: 52%

Dew point: 57 °F

Location of Corpus ChristiLocation

Historic Weather in Corpus Christi — Graph

°F

Corpus Christi temperature yesterday

Maximum temperature yesterday: 80 °F (at 1:51 PM)
Minimum temperature yesterday: 45 °F (at 5:51 AM)
Average temperature yesterday: 60 °F

Past Weeks' High & Low Weather Summary

 TemperatureHumidityPressure
High81 °F (Jan 27, 2:51 PM)100% (Jan 20, 3:51 AM)30.40 "Hg (Jan 20, 3:51 AM)
Low35 °F (Jan 24, 6:51 AM)21% (Jan 27, 2:51 PM)29.88 "Hg (Jan 22, 6:51 AM)
Average55 °F77%30.16 "Hg
* Reported Jan 14 11:51 AM — Jan 29 11:51 AM, Corpus Christi, Weather by CustomWeather, © 2014

Note: Actual official high and low records may vary slightly from our data, if they occured in-between our weather recording intervals... More about our weather records

Advertising

Corpus Christi weather history for previous 24 hours

 ConditionsComfort  
Time TempWeatherWind HumidityBarometerVisibility
11:51 AM
Jan 29
75 °FScattered clouds.15 mph55%30.20 "Hg10 mi
10:51 AM73 °FScattered clouds.15 mph66%30.23 "Hg10 mi
9:51 AM68 °FScattered clouds.14 mph78%30.22 "Hg10 mi
8:51 AM61 °FScattered clouds.8 mph97%30.20 "Hg10 mi
7:51 AM56 °FPartly sunny.6 mph97%30.18 "Hg10 mi
6:51 AM54 °FPassing clouds.7 mph97%30.15 "Hg10 mi
5:51 AM53 °FFog.7 mph100%30.13 "Hg10 mi
4:51 AM53 °FFog.6 mph100%30.13 "Hg10 mi
3:51 AM55 °FPassing clouds.8 mph96%30.13 "Hg10 mi
2:51 AM54 °FPassing clouds.7 mph97%30.14 "Hg10 mi
1:51 AM55 °FFog.8 mph96%30.15 "Hg10 mi
12:51 AM54 °FFog.8 mph100%30.15 "Hg10 mi
11:51 PM
Jan 28
56 °FPassing clouds.8 mph97%30.15 "Hg10 mi
10:51 PM57 °FPassing clouds.8 mph96%30.15 "Hg10 mi
9:51 PM60 °FPassing clouds.9 mph90%30.14 "Hg10 mi
8:51 PM61 °FPassing clouds.12 mph90%30.13 "Hg10 mi
7:51 PM62 °FPassing clouds.10 mph86%30.13 "Hg10 mi
6:51 PM64 °FPassing clouds.13 mph84%30.11 "Hg10 mi
5:51 PM67 °FPartly sunny.16 mph76%30.11 "Hg10 mi
4:51 PM71 °FPartly sunny.21 mph63%30.11 "Hg10 mi
3:51 PM75 °FPartly sunny.18 mph48%30.11 "Hg10 mi
2:51 PM78 °FPartly sunny.15 mph46%30.12 "Hg10 mi
1:51 PM80 °FPartly sunny.15 mph31%30.13 "Hg10 mi
Weather by CustomWeather, © 2014

See weather overviewHow to use our weather pages